This is the latest recevied weather packets stored in our database for station/object OH2MUI. If no packets are shown the sender has not sent any weather packets the latest 10 day(s).
| Time | Temp. | Humidity | Pressure | Rain* | Wind** | Luminosity | Snow |
|---|---|---|---|---|---|---|---|
| 1777532729 | 6.11° C | 92% | 1023.2 hPa | 0 mm | - | - | - |
| 1777530519 | 5° C | 91% | 1023.3 hPa | 0 mm | - | - | - |
| 1777529372 | 5° C | 89% | 1023.3 hPa | 0 mm | - | - | - |
| 1777528284 | 5° C | 88% | 1023.3 hPa | 0 mm | - | - | - |
| 1777527139 | 4.44° C | 88% | 1023.4 hPa | 0 mm | - | - | - |
| 1777525958 | 4.44° C | 87% | 1023.6 hPa | 0 mm | - | - | - |
| 1777524978 | 4.44° C | - | 1023.6 hPa | 0 mm | - | - | - |
| 1777524974 | 4.44° C | 86% | 1023.6 hPa | 0 mm | - | - | - |
| 1777523839 | 3.89° C | 85% | 1023.6 hPa | 0 mm | - | - | - |
| 1777522684 | 3.89° C | 85% | 1023.6 hPa | 0 mm | - | - | - |
| 1777521669 | 3.89° C | 84% | 1023.7 hPa | 0 mm | - | - | - |
| 1777520599 | 3.89° C | 83% | 1023.6 hPa | 0 mm | - | - | - |
| 1777519493 | 3.89° C | 82% | 1023.4 hPa | 0 mm | - | - | - |
| 1777518343 | 3.33° C | 80% | 1023.8 hPa | 0 mm | - | - | - |
| 1777518339 | 3.33° C | 80% | 1023.8 hPa | 0 mm | - | - | - |
| 1777517220 | 3.33° C | - | - | - | - | - | - |
| 1777517204 | 3.33° C | 78% | 1024.1 hPa | 0 mm | - | - | - |
| 1777516189 | 3.33° C | 77% | 1024 hPa | 0 mm | - | - | - |
| 1777514996 | 3.33° C | - | - | - | - | - | - |
| 1777514989 | 3.33° C | 75% | 1023.8 hPa | 0 mm | - | - | - |
| 1777513809 | 3.33° C | 73% | 1024.2 hPa | 0 mm | - | - | - |
| 1777512659 | 3.89° C | 72% | 1024.2 hPa | 0 mm | - | - | - |
| 1777510444 | 3.89° C | 70% | 1024.4 hPa | 0 mm | - | - | - |
| 1777509324 | 3.89° C | 69% | 1024.8 hPa | 0 mm | - | - | - |
| 1777507152 | 3.89° C | 67% | 1024.9 hPa | 0 mm | - | - | - |
* Rain latest hour (hover to see other rain measurements)
** Current wind speed in m/s (hover to see current wind gust speed)